天目一号 14星 (TIANMU-1 14)

导读

TIANMU-1 14(天目一号14星,又名桐乡哪吒汽车号)是中国研制的气象探测卫星,于北京时间2023年12月25日在酒泉卫星发射中心通过快舟一号甲运载火箭以“一箭四星”方式成功发射入轨。该卫星属于天目一号气象探测星座的组网卫星,为北斗/GNSS遥感探测卫星,主要用于获取全球电离层、海面风场等环境要素信息,可实现全球全天候立体化气象探测,支撑高质量气象数据获取,助力空间信息技术赋能国民经济发展。

基本信息
目录编号:
58648
目录名称:
TIANMU-1 14
国际标识:
2023-205D
轨道中心:
EARTH
卫星名称:
天目一号 14星
卫星全名:
天目一号 14星 (TIANMU-1 14)
卫星状态:
在轨 (已飞行945 天)
发射日期:
2023-12-25 UTC
国别 :
中国 (CN)
星等 :
--
轨道信息
数据来源 国际轨道数据 AOE轨道数据
星历时间 2026-07-27T22:28:10+0800
7小时前
查看轨道信息
2026-07-28T02:00:00+0800
4小时前
查看轨道信息
半长轴 6862.194km 6862.161km
偏心率 0.0007864 0.0007952
轨道倾角 97.340° 97.341°
近地点辐角 173.723° 172.398°
升交点赤经 228.711° 228.856°
平近点角 186.411° 276.036°
近地点 478.66km 478.567km
远地点 489.454km 489.481km
周期 94.288分钟 94.287分钟
每日圈数 15.272435 15.272547
详细信息
覆盖范围:
全球
运营商:
中国航天科工集团有限公司
运营商所在国:
中国
制造商(研发单位):
中国航天科工集团有限公司
制造商所在国:
中国
使用方式:
暂无
卫星简介
天目一号气象星座,是由中国航天科工集团落户西部(重庆)科学城西永微电园企业研制,主要用于获取全球大气环境要素信息,建成后可实现全球全天候海洋、大气层、电离层的立体化、一体化探测。该卫星仍在工作。
2D轨道图
3D轨道图
轨道高度分析图
轨道倾角分析图
轨道综合分析图
查看轨道综合分析图